Find Starlink 3715

NORAD ID: 52127 Int'l Des: 2022-029 Owner: SPXS Country: US Constellation: starlink operational
LEOCIRCULAR

Live Position

Loading 3D Globe...

About Starlink 3715

Description loading...

Upcoming Passes

Passes for default location (London). Set your location on the main map for personalized predictions.

Altitude History

Loading altitude history...

Two-Line Element Set

1 52127U 22029AR 26105.91308270 -.00000376 00000-0 -55353-5 0 9990
2 52127 53.2173 262.0188 0001241 93.2838 266.8296 15.08839980226547
Epoch: Apr 15, 2026 • Age: 8 hours

Current Status

Altitude 539.8 km
Velocity 7.60 km/s
Sub-Earth Point 17.25°N, 19.91°W
Launch Date Mar 19, 2022
Age 4 years
Type internet

Technical Details

Classification Payload
Mass 297.00 kg
Dry Mass 275.00 kg
Total Mass 297.00 kg
Length 0.20 m
Diameter 2.80 m
Span 9.00 m
Shape Box + pan
Manufacturer SPXS
Bus Type Starlink
Phase Status In Orbit
Owner/State SPXS/US

Most Searched